SCP
1 1 1 1 1 1 0 0 0 0 0 0 0 0 0 0 0 0 0 0 0 0 0 0 0 0 0 0 0 0 0 0 0 0 0 0 0 0 0 0 0 0 0
1 1 1 1 1 1 1 0 0 0 0 0 0 0 0 0 0 0 0 0 0 0 0 0 0 0 0 0 0 0 0 0 0 0 0 0 0 0 0 0 0 0 0
1 1 1 1 1 1 1 1 0 0 0 0 0 0 0 0 0 0 0 0 0 0 0 0 0 0 0 0 0 0 0 0 0 0 0 0 0 0 0 0 0 0 0
1 1 1 1 1 1 1 1 0 0 0 0 0 0 0 0 0 0 0 0 0 0 0 0 0 0 0 0 0 0 0 0 0 0 0 0 0 0 0 0 0 0 0
1 1 1 1 1 1 1 1 0 0 0 0 0 0 0 0 0 0 0 0 0 0 0 0 0 0 0 0 0 0 0 0 0 0 0 0 0 0 0 0 0 0 0
1 1 1 1 1 1 1 1 1 0 0 0 0 0 0 0 0 0 0 0 0 0 0 0 0 0 0 0 0 0 0 0 0 0 0 0 0 0 0 0 0 0 0
0 0 0 1 1 1 1 1 1 0 0 0 0 0 0 0 0 0 0 0 0 0 0 0 0 0 0 0 0 0 0 0 0 0 0 0 0 0 0 0 0 0 0
0 0 0 0 1 1 1 1 1 0 0 1 1 0 0 0 0 0 0 0 0 0 0 0 0 0 0 0 0 0 0 0 0 0 0 0 0 0 0 0 0 0 0
0 0 0 0 0 1 1 1 0 0 0 1 1 0 0 0 0 0 0 0 0 0 0 0 0 0 0 0 0 0 0 0 0 0 0 0 0 0 0 0 0 0 0
0 0 0 0 0 0 0 0 0 0 0 1 1 1 0 0 0 0 0 0 0 0 0 0 0 0 0 0 0 0 0 0 0 0 0 0 0 0 0 0 0 0 0
0 0 0 0 0 0 0 0 0 0 0 0 1 1 1 0 0 0 0 0 0 0 0 0 0 0 0 0 0 0 0 0 0 0 0 0 0 0 0 0 0 0 0
0 0 0 0 0 0 0 0 0 0 0 0 0 0 0 0 0 0 0 0 0 0 0 0 0 0 0 0 0 0 0 0 0 0 0 0 0 0 0 0 0 0 0
0 0 0 0 0 0 0 0 0 0 0 0 0 0 0 0 0 0 0 0 0 0 0 0 0 0 0 0 0 0 0 0 0 0 0 0 0 0 0 0 0 0 0
0 0 0 0 0 0 0 0 0 0 0 0 0 0 0 0 0 0 0 0 0 0 0 0 0 0 0 0 0 0 0 0 0 0 0 0 0 0 0 0 0 0 0
0 0 0 0 0 0 0 0 0 0 0 0 0 0 0 0 0 0 0 0 0 0 0 0 0 0 0 0 0 0 0 0 0 0 0 0 0 0 0 0 0 0 0
0 0 0 0 0 0 0 0 0 0 0 0 0 0 0 0 0 0 0 0 0 0 0 0 0 0 0 0 0 0 0 0 0 0 0 0 0 0 0 0 0 0 0
0 0 0 0 0 0 0 0 0 0 0 0 0 0 0 0 0 0 0 0 0 0 0 0 0 0 0 0 0 0 0 0 0 0 0 0 0 0 0 0 0 0 0
0 0 0 0 0 0 0 0 0 0 0 0 0 0 0 0 0 0 0 0 0 0 0 0 0 0 0 0 0 0 0 0 0 0 0 0 0 0 0 0 0 0 0
0 0 0 0 0 0 0 0 0 0 0 0 0 0 0 0 0 0 0 0 0 0 0 0 0 0 0 0 0 0 0 0 0 0 0 0 0 0 0 0 0 0 0
0 0 0 0 0 0 0 0 0 0 0 0 0 0 0 0 0 0 0 0 0 0 0 0 0 0 0 0 0 0 0 0 0 0 0 0 0 0 0 0 0 0 0
0 0 0 0 0 0 0 0 0 0 0 0 0 0 0 0 0 0 0 0 0 0 0 0 0 0 0 0 0 0 0 0 0 0 0 0 0 0 0 0 0 0 0
0 0 0 0 0 0 0 0 0 0 0 0 0 0 0 0 0 0 0 0 0 0 0 0 0 0 0 0 0 0 0 0 0 0 0 0 0 0 0 0 0 0 0
0 0 0 0 0 0 0 0 0 0 0 0 0 0 0 0 0 0 0 0 0 0 0 0 0 0 0 0 0 0 0 0 0 0 0 0 0 0 0 0 0 0 0
0 0 0 0 0 0 0 0 0 0 0 0 0 0 0 0 0 0 0 0 0 0 0 0 0 0 0 0 0 0 0 0 0 0 0 0 0 0 0 0 0 0 -0
0 0 0 0 0 0 0 0 0 0 0 0 0 0 0 0 0 0 0 0 0 0 0 0 0 0 0 0 0 0 0 0 0 0 0 0 0 0 0 0 0 0 0
0 0 0 0 0 0 0 0 0 0 0 0 0 0 0 0 0 0 0 0 0 0 0 0 0 0 0 0 0 0 0 0 0 0 0 0 0 0 0 0 0 0 0
Wind_Speed
3 2 2 2 3 3 3 4 3 3 5 5 5 5 6 5 5 5 3 6 5 5 7 7 7 8 7 7 7 7 7 7 7 8 8 8 9 9 9 10 10 11 11
2 3 3 3 3 3 3 3 3 4 5 4 6 6 6 6 5 6 5 5 7 7 7 8 8 8 8 8 8 8 8 8 8 8 8 8 8 8 9 10 10 10 11
2 3 3 3 3 3 3 4 4 4 5 5 6 6 6 6 5 5 5 4 5 8 9 8 8 8 9 9 8 8 8 8 8 8 8 8 9 9 9 10 11 11 11
3 4 3 3 2 3 4 3 4 4 4 5 5 5 5 4 5 5 5 5 4 4 7 8 7 7 8 9 9 8 8 9 9 9 9 9 9 10 10 10 10 11 12
3 4 3 2 3 3 3 4 3 4 4 5 5 4 5 5 4 5 4 5 5 5 4 5 7 7 8 8 9 9 9 9 9 9 10 10 10 9 9 9 9 10 12
2 3 3 2 3 3 2 3 3 3 4 4 5 4 4 4 3 3 4 4 4 5 5 4 4 6 7 7 8 8 9 10 10 10 10 10 10 9 9 9 9 9 11
2 3 3 2 3 2 3 3 4 4 4 3 4 4 4 5 4 3 3 3 3 4 4 4 4 4 4 7 7 7 8 10 9 10 11 11 10 9 9 9 9 9 9
2 2 3 3 3 3 3 3 3 4 3 2 4 4 3 4 3 4 4 4 4 4 5 5 5 5 5 4 3 6 7 9 9 10 11 11 10 10 10 9 9 9 9
2 2 3 3 3 3 2 3 3 4 4 3 2 3 4 3 2 3 4 3 3 4 5 5 5 5 6 5 4 5 6 7 9 10 10 10 10 10 10 11 11 10 10
2 2 2 2 3 3 2 3 3 4 5 4 2 3 4 4 4 3 3 3 4 4 5 5 5 5 5 5 4 2 3 5 8 9 9 9 10 11 11 11 11 11 11
1 2 2 2 2 2 2 3 3 4 4 4 3 3 4 3 5 4 4 3 3 4 4 4 4 5 4 5 5 2 2 4 5 7 8 9 9 10 12 12 12 12 12
1 1 1 2 2 2 2 3 3 4 4 4 5 4 4 3 4 4 5 5 4 4 4 4 4 4 4 5 5 1 3 4 5 6 8 9 9 10 11 12 13 13 14
0 0 1 1 2 2 2 3 3 3 4 4 5 4 4 4 5 5 6 6 6 4 4 4 4 4 4 4 4 2 4 4 5 6 7 8 9 10 10 11 11 12 13
0 1 1 2 2 2 2 2 3 3 3 4 5 5 5 4 4 5 5 6 6 5 4 4 3 4 4 5 3 5 5 4 5 6 7 8 9 9 10 9 9 10 10
1 1 2 2 2 2 3 3 2 3 4 5 4 4 5 4 4 4 5 5 6 7 6 4 4 4 4 4 3 6 6 3 5 7 7 7 8 9 9 9 9 9 9
2 2 2 2 2 2 3 3 3 2 4 3 3 4 5 4 4 4 4 5 5 7 7 5 5 4 4 6 4 7 7 6 8 8 7 7 8 9 9 9 10 10 9
2 2 2 2 2 3 3 3 4 3 4 4 5 4 5 5 5 4 4 4 4 5 7 7 5 4 5 7 6 7 7 7 5 6 7 7 7 8 8 8 9 9 9
2 2 2 2 3 2 3 3 4 4 4 4 4 4 5 4 5 5 4 5 5 5 7 8 7 6 5 6 6 7 7 6 6 5 8 8 8 8 8 8 8 8 8
2 2 2 2 2 2 3 3 4 4 4 4 4 4 5 5 5 4 5 5 5 5 6 7 7 5 5 5 6 7 7 6 7 5 8 9 10 9 9 9 9 9 9
2 2 2 2 2 3 3 3 3 3 4 3 3 4 4 5 5 5 5 5 5 6 6 6 6 6 5 5 5 6 6 5 6 6 5 5 7 10 10 10 9 9 9
2 1 2 2 2 2 2 3 3 3 3 3 3 4 4 4 4 5 5 5 6 6 6 6 6 6 5 5 6 6 7 6 6 5 5 5 5 6 7 9 10 9 8
1 1 1 2 2 2 3 3 5 4 4 3 3 4 4 3 2 4 4 5 6 7 7 7 7 7 7 7 6 6 7 7 6 4 5 6 5 5 5 5 4 6 7
1 1 1 2 2 2 2 2 3 4 3 3 3 4 4 3 3 4 3 5 6 6 7 8 9 8 8 7 8 9 7 8 7 6 6 7 5 5 5 4 6 7 7
1 1 1 2 2 1 1 2 4 4 3 2 3 4 4 4 4 5 7 6 6 5 5 6 7 8 8 7 7 9 9 8 8 6 6 6 6 6 5 3 6 8 8
2 2 1 2 2 1 1 1 5 3 2 3 3 3 4 4 4 5 6 6 7 6 4 5 6 8 8 8 8 7 7 7 6 5 4 6 6 5 5 4 4 8 9
2 2 1 2 2 1 1 1 4 4 3 3 2 2 1 3 4 5 6 7 7 7 7 6 5 6 7 6 8 7 6 7 6 6 4 5 5 5 5 4 3 3 5
Wind_Direction
224 220 230 235 240 233 221 232 240 242 250 243 245 249 257 256 252 245 194 177 207 237 245 247 245 246 249 247 248 242 240 241 240 235 230 231 230 228 227 226 224 221 218
230 231 227 227 237 244 252 249 244 243 247 250 247 244 249 253 247 251 250 191 198 223 239 242 244 244 248 245 244 242 240 239 240 240 236 237 238 235 231 230 229 226 222
225 243 239 229 235 243 238 242 243 244 244 243 244 245 244 247 252 248 255 254 221 207 220 233 245 249 252 250 247 245 242 240 241 242 239 241 243 242 239 235 232 229 226
225 244 248 243 248 246 244 245 247 251 249 251 249 249 246 238 241 242 246 247 257 246 210 207 232 247 255 256 253 250 247 243 241 241 243 241 240 241 241 239 235 231 228
222 246 258 265 257 255 257 259 246 259 257 260 255 245 249 244 239 240 247 254 251 255 258 190 206 233 247 254 256 255 250 246 244 242 244 244 242 240 238 238 238 234 231
228 256 247 253 259 255 259 265 264 258 268 266 266 259 250 250 244 242 246 244 251 252 255 265 233 220 224 243 255 259 257 254 251 247 244 243 241 238 234 235 237 237 233
255 263 278 255 265 261 266 271 266 249 250 260 262 254 240 228 236 240 247 260 251 254 258 258 260 269 234 221 233 249 258 259 258 254 248 243 241 238 231 228 231 236 234
267 256 280 273 265 259 260 270 273 270 261 253 274 269 251 217 216 228 232 236 255 264 263 256 256 255 265 257 220 230 255 264 266 260 252 246 242 238 235 230 229 230 231
251 273 275 276 279 272 264 267 269 264 270 250 263 282 278 272 274 217 228 240 250 260 266 264 253 256 258 263 259 223 244 264 267 266 261 251 242 238 236 235 233 230 230
263 269 275 273 276 282 280 266 266 266 267 268 241 251 275 306 281 274 244 236 247 252 267 274 274 263 261 262 254 276 255 267 272 271 269 265 252 242 238 236 235 233 233
267 275 265 271 270 277 287 284 273 271 270 277 276 264 257 254 262 273 279 278 260 255 261 266 276 273 264 262 263 264 255 264 273 277 277 273 264 249 242 240 237 235 236
252 270 272 287 283 283 263 263 269 265 279 284 283 277 272 269 268 270 275 276 279 273 265 270 270 273 273 272 273 346 271 262 266 271 272 272 270 262 252 246 243 240 238
245 306 298 294 297 290 279 276 271 284 278 273 272 275 275 270 278 277 278 284 284 279 268 257 270 276 276 280 279 297 256 252 263 266 267 267 266 264 259 253 251 248 245
293 338 296 280 281 286 283 279 277 272 270 269 271 277 275 273 278 278 279 287 289 285 271 276 272 265 278 278 300 265 260 225 260 268 265 263 264 259 254 252 252 254 252
245 258 273 267 272 277 278 277 285 288 284 277 277 271 273 278 273 273 275 278 281 289 289 279 279 275 279 284 289 277 278 242 252 262 264 265 267 262 255 250 248 249 250
265 263 272 267 266 269 269 274 278 291 282 280 280 283 280 285 285 277 274 274 275 282 290 300 295 299 301 288 275 279 275 250 234 239 247 257 263 263 258 252 248 246 244
247 250 261 280 271 271 277 277 283 278 272 272 272 272 277 286 287 284 280 278 277 278 283 294 298 308 292 284 283 279 275 272 251 219 232 245 255 259 255 252 250 248 242
239 239 249 264 268 270 272 273 278 282 278 281 288 289 288 286 282 281 285 282 280 276 279 290 293 293 290 285 280 280 278 272 268 220 220 231 240 244 244 244 245 246 245
247 255 265 278 287 281 275 281 286 290 294 294 293 292 290 286 283 290 285 287 287 286 285 285 288 293 287 291 288 277 275 272 268 238 213 218 227 234 238 238 238 239 238
243 252 268 279 290 296 297 301 299 305 301 298 294 289 294 295 288 289 283 284 291 292 286 284 289 294 296 298 293 289 283 268 270 273 257 241 225 222 228 230 230 231 232
236 238 269 278 285 292 324 321 305 305 303 298 296 297 300 301 308 293 302 309 302 296 297 296 296 303 307 310 300 297 293 288 277 274 271 257 241 239 226 219 219 222 222
245 260 303 306 313 345 38 341 302 302 301 300 308 307 288 263 272 251 262 282 290 291 299 298 299 302 299 299 302 295 294 294 291 295 289 277 267 261 253 244 208 196 212
238 271 307 319 335 29 43 349 316 294 294 314 313 306 308 340 316 317 293 254 255 247 257 279 291 296 300 302 299 290 288 290 288 294 290 281 277 265 254 230 184 192 207
240 255 285 303 313 4 61 330 304 279 295 306 304 304 305 320 347 337 317 313 310 304 287 277 287 293 298 304 297 288 287 282 275 267 268 273 276 272 271 252 185 195 207
249 256 268 287 295 323 98 304 293 287 295 295 297 312 315 326 19 334 306 306 307 302 271 256 264 273 278 275 278 285 286 284 285 283 280 277 279 281 277 261 206 194 204
237 259 270 285 291 307 107 258 289 289 302 296 288 282 60 359 1 327 309 310 307 312 311 298 268 254 256 250 238 255 277 283 290 289 299 288 283 284 275 260 257 214 207